GSAT-15

Last updated on Sept. 20, 2020, 5:45 a.m. UTC

1 41028U 15065A   20263.79472122 -.00000273  00000-0  00000-0 0  9992
2 41028   0.0198 127.9276 0002776  23.1512 227.6697  1.00271468 17786
UTC
Height (km)
Latitude
Longitude
Inclination
Orbital Period
UTC large
Height (km)
Speed (km/s)
/
Latitude / Longitude
Inclination (degrees)
Orbital Period (minutes)
Azimuth
Elevation
Range (km)
Doppler Factor
iOS Compass Heading
iOS Angle

Next 30 passes for location: Hong Kong

Rise time Rise Azimuth (degrees) Set time Set Azimuth (degrees) Duration Max altitude (degrees)

No matching passes for this satellites